Location: ???????
(54.6339°N, 39.4245°E)
Time: 07:12:51
(UTC+00:00)

Cosmos 44 Rocket - Pass Details

Date: 19 May 2025
Orbit: 650 x 728 km, 65.1° (Epoch: 23 June)

Event Time Altitude Azimuth Distance (km) Brightness Sun altitude
Rises 22:58:23 0° 312° (NW) 3,020 6.8 -12.4°
Reaches altitude 10° 23:00:45 10° 307° (NW) 2,114 5.9 -12.3°
Maximum altitude 23:05:19 45° 235° (SW) 927 3.6 -12.0°
Drops below altitude 10° 23:09:58 10° 163° (SSE) 2,149 5.4 -11.7°
Enters shadow 23:11:05 - 160° (SSE) 2,568 5.8 -11.6°
